Fremont, NE

2:48 AM CST on January 19, 2018 (GMT -0600)
Fremont Municipal

Weather History for KFET - November, 2014

Change the Weather History Date:

Friday, November 28, 2014

  Actual Average Record
Temperature  
Mean Temperature 40 °F -  
Max Temperature 55 °F 37 °F 62 °F (1949)
Min Temperature 25 °F 18 °F -2 °F (1976)
Degree Days  
Heating Degree Days 25    
Moisture  
Dew Point 27 °F    
Average Humidity 66    
Maximum Humidity 86    
Minimum Humidity 38    
Precipitation  
Precipitation 0.00 in - - ()
Sea Level Pressure  
Sea Level Pressure 29.78 in    
Wind  
Wind Speed 9 mph (SSE)    
Max Wind Speed 15 mph    
Max Gust Speed 20 mph    
Visibility 10 miles    
Events      
Averages and records for this station are not official NWS values.
T = Trace of Precipitation, MM = Missing Value Source: NWS Daily Summary

Daily Weather History Graph

Daily Weather History Graph

Search for Another Location

Airport or City:

Trip Planner

Search our weather history database for the weather conditions in past years. The results will help you decide how hot, cold, wet, or windy it might be!

Date:

Astronomy

Nov. 28, 2014 Rise Set
Actual Time 7:29 AM CST 4:58 PM CST
Civil Twilight 6:59 AM CST 5:28 PM CST
Nautical Twilight 6:24 AM CST 6:03 PM CST
Astronomical Twilight 5:51 AM CST 6:36 PM CST
Moon 12:21 PM CST (11/28) 11:50 PM CST (11/28)
Length of Visible Light 10h 29m
Length of Day
9h 28m
Waxing Crescent, 42% of the Moon is Illuminated
Nov 28
Waxing Crescent
Nov 29
First Quarter
Dec 6
Full
Dec 14
Last Quarter
Dec 21
New

Hourly Weather History & Observations

Time (CST) Temp. Windchill Dew Point Humidity Pressure Visibility Wind Dir Wind Speed Gust Speed Precip Events Conditions
12:15 AM 26.4 °F 15.5 °F 20.3 °F 78% 30.06 in 10.0 mi SE 12.7 mph - N/A   Clear
12:35 AM 26.6 °F 15.2 °F 20.7 °F 78% 30.04 in 10.0 mi SE 13.8 mph 19.6 mph N/A   Clear
12:55 AM 26.6 °F 16.2 °F 20.8 °F 79% 30.03 in 10.0 mi SE 11.5 mph 18.4 mph N/A   Clear
1:15 AM 26.6 °F 15.7 °F 21.0 °F 79% 30.02 in 10.0 mi SSE 12.7 mph - N/A   Clear
1:35 AM 27.1 °F 16.4 °F 21.2 °F 78% 30.01 in 10.0 mi SSE 12.7 mph - N/A   Clear
1:55 AM 27.5 °F 17.4 °F 21.6 °F 78% 30.00 in 10.0 mi SSE 11.5 mph - N/A   Clear
2:15 AM 28.2 °F 18.3 °F 21.9 °F 77% 29.99 in 10.0 mi SSE 11.5 mph - N/A   Clear
2:35 AM 28.4 °F 17.5 °F 22.1 °F 77% 29.99 in 10.0 mi SSE 13.8 mph - N/A   Clear
2:55 AM 28.4 °F 17.0 °F 22.1 °F 77% 29.98 in 10.0 mi SSE 15.0 mph - N/A   Clear
3:15 AM 28.2 °F 16.8 °F 22.1 °F 78% 29.96 in 10.0 mi SSE 15.0 mph - N/A   Clear
3:35 AM 28.2 °F 18.3 °F 22.1 °F 78% 29.96 in 10.0 mi SSE 11.5 mph 16.1 mph N/A   Clear
3:55 AM 28.4 °F 19.7 °F 22.1 °F 77% 29.95 in 10.0 mi SSE 9.2 mph - N/A   Clear
4:15 AM 28.4 °F 20.4 °F 22.1 °F 77% 29.94 in 10.0 mi SSE 8.1 mph - N/A   Clear
4:35 AM 28.2 °F 20.2 °F 22.1 °F 78% 29.93 in 10.0 mi SSE 8.1 mph - N/A   Clear
4:55 AM 27.9 °F 19.8 °F 22.1 °F 79% 29.93 in 10.0 mi SSE 8.1 mph - N/A   Clear
5:15 AM 27.0 °F 20.5 °F 21.9 °F 81% 29.93 in 10.0 mi SSE 5.8 mph - N/A   Clear
5:35 AM 26.4 °F 20.9 °F 21.9 °F 83% 29.92 in 10.0 mi SSE 4.6 mph - N/A   Clear
5:55 AM 25.9 °F 21.7 °F 21.4 °F 83% 29.91 in 10.0 mi SSE 3.5 mph - N/A   Clear
6:15 AM 25.7 °F 19.0 °F 21.6 °F 84% 29.89 in 10.0 mi SE 5.8 mph - N/A   Clear
6:35 AM 25.9 °F 20.3 °F 21.9 °F 85% 29.89 in 10.0 mi SSE 4.6 mph - N/A   Clear
6:55 AM 26.1 °F 19.4 °F 22.1 °F 85% 29.89 in 10.0 mi SSE 5.8 mph - N/A   Clear
7:15 AM 26.4 °F 19.8 °F 22.1 °F 84% 29.88 in 10.0 mi SSE 5.8 mph - N/A   Clear
7:35 AM 25.9 °F 18.2 °F 22.1 °F 86% 29.87 in 10.0 mi SE 6.9 mph - N/A   Clear
7:55 AM 26.6 °F 20.0 °F 22.6 °F 85% 29.86 in 10.0 mi SSE 5.8 mph - N/A   Clear
8:15 AM 27.7 °F 21.3 °F 23.4 °F 84% 29.86 in 10.0 mi SSE 5.8 mph - N/A   Clear
8:55 AM 32.0 °F 25.6 °F 24.8 °F 75% 29.85 in 10.0 mi South 6.9 mph - N/A   Clear
9:15 AM 32.9 °F 26.7 °F 24.8 °F 72% 29.84 in 10.0 mi South 6.9 mph - N/A   Clear
9:35 AM 34.0 °F 26.6 °F 25.2 °F 70% 29.83 in 10.0 mi South 9.2 mph - N/A   Clear
9:55 AM 34.9 °F 27.7 °F 25.5 °F 69% 29.83 in 10.0 mi South 9.2 mph - N/A   Clear
10:15 AM 35.8 °F 28.3 °F 25.9 °F 67% 29.83 in 10.0 mi SSW 10.4 mph - N/A   Clear
10:35 AM 36.0 °F 32.1 °F 26.8 °F 69% 29.83 in 10.0 mi South 4.6 mph - N/A   Clear
10:55 AM 37.4 °F 34.9 °F 27.3 °F 67% 29.81 in 10.0 mi SE 3.5 mph - N/A   Clear
11:15 AM 39.4 °F 35.2 °F 28.0 °F 64% 29.80 in 10.0 mi South 5.8 mph - N/A   Clear
11:35 AM 42.3 °F 38.6 °F 28.6 °F 58% 29.78 in 10.0 mi SSE 5.8 mph - N/A   Clear
11:55 AM 43.0 °F 38.2 °F 28.8 °F 57% 29.77 in 10.0 mi SSE 8.1 mph - N/A   Clear
12:15 PM 45.5 °F 41.3 °F 29.5 °F 54% 29.77 in 10.0 mi South 8.1 mph - N/A   Clear
12:35 PM 47.3 °F - 29.5 °F 50% 29.74 in 10.0 mi SSE 6.9 mph - N/A   Clear
12:55 PM 49.1 °F - 29.5 °F 47% 29.72 in 10.0 mi SSE 6.9 mph - N/A   Clear
1:15 PM 50.2 °F - 29.5 °F 45% 29.71 in 10.0 mi SSE 10.4 mph - N/A   Clear
1:35 PM 51.4 °F - 29.3 °F 43% 29.70 in 10.0 mi SSE 11.5 mph - N/A   Clear
1:55 PM 52.9 °F - 29.7 °F 41% 29.69 in 10.0 mi SE 11.5 mph - N/A   Clear
2:15 PM 53.8 °F - 29.3 °F 39% 29.69 in 10.0 mi SSE 10.4 mph - N/A   Clear
2:35 PM 54.5 °F - 29.3 °F 38% 29.69 in 10.0 mi SSE 10.4 mph - N/A   Clear
2:55 PM 54.7 °F - 29.3 °F 38% 29.68 in 10.0 mi South 10.4 mph - N/A   Clear
3:15 PM 55.0 °F - 29.7 °F 38% 29.69 in 10.0 mi South 6.9 mph - N/A   Clear
3:35 PM 55.0 °F - 30.0 °F 38% 29.68 in 10.0 mi SSE 8.1 mph - N/A   Clear
3:55 PM 55.0 °F - 30.6 °F 39% 29.67 in 10.0 mi SSE 8.1 mph - N/A   Clear
4:15 PM 52.9 °F - 30.9 °F 43% 29.66 in 10.0 mi SSE 8.1 mph - N/A   Clear
4:35 PM 50.5 °F - 30.9 °F 47% 29.66 in 10.0 mi SE 8.1 mph - N/A   Clear
4:55 PM 50.4 °F - 31.1 °F 48% 29.65 in 10.0 mi SE 9.2 mph - N/A   Clear
5:15 PM 48.4 °F - 31.1 °F 51% 29.65 in 10.0 mi ESE 4.6 mph - N/A   Clear
5:35 PM 47.7 °F - 31.5 °F 53% 29.65 in 10.0 mi SE 6.9 mph - N/A   Clear
5:55 PM 47.1 °F - 31.8 °F 55% 29.65 in 10.0 mi ESE 6.9 mph - N/A   Clear
6:15 PM 45.1 °F 41.4 °F 31.8 °F 60% 29.64 in 10.0 mi SE 6.9 mph - N/A   Clear
6:35 PM 45.5 °F 42.5 °F 31.8 °F 59% 29.64 in 10.0 mi SE 5.8 mph - N/A   Clear
6:55 PM 45.5 °F 41.3 °F 31.6 °F 58% 29.63 in 10.0 mi SE 8.1 mph - N/A   Clear
7:15 PM 46.0 °F 41.9 °F 32.0 °F 58% 29.63 in 10.0 mi SSE 8.1 mph - N/A   Clear
7:35 PM 44.8 °F 41.6 °F 31.8 °F 60% 29.62 in 10.0 mi SE 5.8 mph - N/A   Clear
7:55 PM 46.6 °F - 31.8 °F 56% 29.62 in 10.0 mi SSE 3.5 mph - N/A   Clear
8:15 PM 44.1 °F - 30.6 °F 59% 29.62 in 10.0 mi Calm Calm - N/A   Clear
8:35 PM 39.6 °F - 30.9 °F 71% 29.62 in 10.0 mi Calm Calm - N/A   Clear
8:55 PM 37.0 °F - 29.8 °F 75% 29.61 in 10.0 mi Calm Calm - N/A   Clear
9:15 PM 37.4 °F - 30.4 °F 76% 29.61 in 10.0 mi Calm Calm - N/A   Clear
9:35 PM 36.1 °F - 30.0 °F 78% 29.60 in 10.0 mi Calm Calm - N/A   Clear
9:55 PM 35.2 °F - 30.2 °F 82% 29.60 in 10.0 mi Calm Calm - N/A   Clear
10:15 PM 36.0 °F - 30.2 °F 80% 29.60 in 10.0 mi Calm Calm - N/A   Clear
10:35 PM 35.1 °F - 29.8 °F 81% 29.60 in 10.0 mi Calm Calm - N/A   Clear
10:55 PM 41.7 °F - 32.0 °F 68% 29.60 in 10.0 mi Calm Calm - N/A   Clear
11:15 PM 43.3 °F - 31.8 °F 64% 29.60 in 10.0 mi Calm Calm - N/A   Clear
11:35 PM 43.5 °F - 31.8 °F 63% 29.59 in 10.0 mi Calm Calm - N/A   Clear
11:55 PM 45.0 °F - 31.8 °F 60% 29.58 in 10.0 mi Calm Calm - N/A   Clear